• în România
  • Lista ţărilor
  • Pe 7 zile
  • Temperatura apei
  • Hartă satelitară
  • Meteo pe hartă
  • Widget-uri
  • user-avatar
    Intrare

    Meteo pe oră la Pervomayskaya

    Astăzi, 21 August, Marţi

    Timp Temperatura Precipitaţii Vânt Presiune Umiditate
    00:00 +18°C° 0 mm 2 m/s 752 mmHg 65%
    01:00 +18°C° 0 mm 2 m/s 752 mmHg 66%
    02:00 +18°C° 0 mm 3 m/s 752 mmHg 67%
    03:00 +17°C° 0 mm 3 m/s 752 mmHg 67%
    04:00 +17°C° 0 mm 3 m/s 752 mmHg 67%
    05:00 +17°C° 0 mm 3 m/s 752 mmHg 67%
    06:00 +17°C° 0 mm 3 m/s 752 mmHg 67%
    07:00 +19°C° 0 mm 3 m/s 752 mmHg 61%
    08:00 +22°C° 0 mm 3 m/s 752 mmHg 54%
    09:00 +25°C° 0 mm 3 m/s 752 mmHg 48%
    10:00 +26°C° 0 mm 4 m/s 752 mmHg 44%
    11:00 +27°C° 0 mm 5 m/s 752 mmHg 40%
    12:00 +28°C° 0 mm 5 m/s 752 mmHg 36%
    13:00 +29°C° 0 mm 5 m/s 751 mmHg 35%
    14:00 +29°C° 0 mm 5 m/s 751 mmHg 34%
    15:00 +29°C° 0 mm 6 m/s 750 mmHg 33%
    16:00 +28°C° 0 mm 5 m/s 750 mmHg 38%
    17:00 +27°C° 0 mm 4 m/s 750 mmHg 42%
    18:00 +26°C° 0 mm 3 m/s 749 mmHg 46%
    19:00 +24°C° 0 mm 3 m/s 749 mmHg 48%
    20:00 +22°C° 0 mm 3 m/s 749 mmHg 49%
    21:00 +20°C° 0 mm 3 m/s 749 mmHg 51%
    22:00 +20°C° 0 mm 3 m/s 749 mmHg 49%
    23:00 +19°C° 0 mm 3 m/s 749 mmHg 48%

    Mâine, 22 August, Miercuri

    Timp Temperatura Precipitaţii Vânt Presiune Umiditate
    00:00 +19°C° 0 mm 4 m/s 748 mmHg 47%
    01:00 +19°C° 0 mm 4 m/s 748 mmHg 45%
    02:00 +18°C° 0 mm 4 m/s 748 mmHg 44%
    03:00 +18°C° 0 mm 4 m/s 747 mmHg 42%
    04:00 +18°C° 0 mm 4 m/s 747 mmHg 43%
    05:00 +18°C° 0 mm 4 m/s 747 mmHg 44%
    06:00 +18°C° 0 mm 4 m/s 747 mmHg 46%
    07:00 +17°C° 0,5 mm 5 m/s 747 mmHg 51%
    08:00 +19°C° 0,5 mm 5 m/s 747 mmHg 57%
    09:00 +19°C° 0,5 mm 5 m/s 747 mmHg 63%
    10:00 +19°C° 0,6 mm 4 m/s 748 mmHg 67%
    11:00 +19°C° 0,6 mm 4 m/s 748 mmHg 72%
    12:00 +19°C° 0,6 mm 4 m/s 748 mmHg 77%
    13:00 +20°C° 0,1 mm 4 m/s 748 mmHg 68%
    14:00 +21°C° 0,1 mm 5 m/s 748 mmHg 59%
    15:00 +23°C° 0,1 mm 5 m/s 748 mmHg 51%
    16:00 +22°C° 0 mm 5 m/s 749 mmHg 52%
    17:00 +21°C° 0 mm 5 m/s 749 mmHg 54%
    18:00 +20°C° 0 mm 4 m/s 749 mmHg 56%
    19:00 +19°C° 0 mm 4 m/s 750 mmHg 60%
    20:00 +17°C° 0 mm 4 m/s 750 mmHg 63%
    21:00 +16°C° 0 mm 3 m/s 751 mmHg 67%
    22:00 +14°C° 0 mm 3 m/s 751 mmHg 69%
    23:00 +13°C° 0 mm 3 m/s 751 mmHg 72%

    Poimâine, 23 August, Joi

    Timp Temperatura Precipitaţii Vânt Presiune Umiditate
    00:00 +13°C° 0 mm 3 m/s 752 mmHg 75%
    01:00 +12°C° 0 mm 3 m/s 752 mmHg 77%
    02:00 +12°C° 0 mm 3 m/s 752 mmHg 80%
    03:00 +11°C° 0 mm 3 m/s 753 mmHg 82%
    04:00 +11°C° 0 mm 3 m/s 753 mmHg 82%
    05:00 +11°C° 0 mm 3 m/s 753 mmHg 82%
    06:00 +11°C° 0 mm 3 m/s 754 mmHg 82%
    07:00 +13°C° 0 mm 3 m/s 754 mmHg 73%
    08:00 +15°C° 0 mm 4 m/s 754 mmHg 64%
    09:00 +17°C° 0 mm 5 m/s 755 mmHg 54%
    10:00 +19°C° 0 mm 5 m/s 755 mmHg 50%
    11:00 +20°C° 0 mm 5 m/s 755 mmHg 46%
    12:00 +21°C° 0 mm 5 m/s 755 mmHg 43%
    13:00 +21°C° 0 mm 5 m/s 755 mmHg 42%
    14:00 +21°C° 0 mm 5 m/s 755 mmHg 42%
    15:00 +21°C° 0 mm 5 m/s 755 mmHg 42%
    16:00 +20°C° 0 mm 4 m/s 755 mmHg 46%
    17:00 +20°C° 0 mm 4 m/s 755 mmHg 50%
    18:00 +19°C° 0 mm 3 m/s 755 mmHg 54%
    19:00 +17°C° 0 mm 2 m/s 755 mmHg 58%
    20:00 +16°C° 0 mm 2 m/s 756 mmHg 61%
    21:00 +14°C° 0 mm 2 m/s 756 mmHg 65%
    22:00 +14°C° 0 mm 1 m/s 756 mmHg 66%
    23:00 +13°C° 0 mm 1 m/s 756 mmHg 68%

    24 August, Vineri

    Timp Temperatura Precipitaţii Vânt Presiune Umiditate
    00:00 +13°C° 0 mm 1 m/s 756 mmHg 69%
    01:00 +13°C° 0 mm 1 m/s 756 mmHg 69%
    02:00 +12°C° 0 mm 1 m/s 757 mmHg 70%
    03:00 +12°C° 0 mm 1 m/s 757 mmHg 71%
    04:00 +12°C° 0 mm 2 m/s 757 mmHg 72%
    05:00 +12°C° 0 mm 2 m/s 757 mmHg 72%
    06:00 +12°C° 0 mm 2 m/s 757 mmHg 73%
    07:00 +15°C° 0 mm 2 m/s 757 mmHg 65%
    08:00 +17°C° 0 mm 2 m/s 757 mmHg 58%
    09:00 +19°C° 0 mm 2 m/s 757 mmHg 50%
    10:00 +20°C° 0 mm 3 m/s 757 mmHg 46%
    11:00 +21°C° 0 mm 3 m/s 756 mmHg 42%
    12:00 +22°C° 0 mm 3 m/s 756 mmHg 38%
    13:00 +24°C° 0 mm 3 m/s 756 mmHg 37%
    14:00 +24°C° 0 mm 3 m/s 755 mmHg 37%
    15:00 +24°C° 0 mm 3 m/s 755 mmHg 37%
    16:00 +24°C° 0 mm 3 m/s 755 mmHg 41%
    17:00 +23°C° 0 mm 2 m/s 755 mmHg 46%
    18:00 +21°C° 0 mm 2 m/s 755 mmHg 51%
    19:00 +19°C° 0 mm 2 m/s 755 mmHg 54%
    20:00 +18°C° 0 mm 2 m/s 755 mmHg 58%
    21:00 +16°C° 0 mm 1 m/s 755 mmHg 61%
    22:00 +16°C° 0 mm 1 m/s 755 mmHg 63%
    23:00 +15°C° 0 mm 1 m/s 755 mmHg 64%

    25 August, Sâmbătă

    Timp Temperatura Precipitaţii Vânt Presiune Umiditate
    00:00 +15°C° 0 mm 1 m/s 755 mmHg 66%
    01:00 +15°C° 0 mm 1 m/s 755 mmHg 67%
    02:00 +14°C° 0 mm 1 m/s 755 mmHg 68%
    03:00 +14°C° 0 mm 1 m/s 755 mmHg 70%
    04:00 +14°C° 0 mm 1 m/s 755 mmHg 70%
    05:00 +14°C° 0 mm 2 m/s 755 mmHg 70%
    06:00 +14°C° 0 mm 2 m/s 755 mmHg 71%
    07:00 +16°C° 0 mm 2 m/s 755 mmHg 64%
    08:00 +18°C° 0 mm 2 m/s 755 mmHg 58%
    09:00 +21°C° 0 mm 2 m/s 755 mmHg 51%
    10:00 +23°C° 0 mm 2 m/s 755 mmHg 48%
    11:00 +24°C° 0 mm 2 m/s 755 mmHg 44%
    12:00 +25°C° 0 mm 2 m/s 755 mmHg 40%
    13:00 +26°C° 0 mm 1 m/s 755 mmHg 39%
    14:00 +26°C° 0 mm 1 m/s 754 mmHg 38%
    15:00 +27°C° 0 mm 1 m/s 754 mmHg 37%
    16:00 +26°C° 0 mm 1 m/s 754 mmHg 41%
    17:00 +25°C° 0 mm 1 m/s 754 mmHg 45%
    18:00 +24°C° 0 mm 1 m/s 754 mmHg 49%
    19:00 +23°C° 0 mm 1 m/s 754 mmHg 52%
    20:00 +21°C° 0 mm 1 m/s 754 mmHg 56%
    21:00 +20°C° 0 mm 1 m/s 754 mmHg 59%
    22:00 +19°C° 0 mm 1 m/s 754 mmHg 62%
    23:00 +19°C° 0 mm 1 m/s 754 mmHg 66%

    26 August, Duminică

    Timp Temperatura Precipitaţii Vânt Presiune Umiditate
    00:00 +18°C° 0 mm 1 m/s 755 mmHg 69%
    01:00 +18°C° 0 mm 1 m/s 755 mmHg 72%
    02:00 +16°C° 0 mm 1 m/s 755 mmHg 76%
    03:00 +16°C° 0 mm 1 m/s 755 mmHg 79%
    04:00 +16°C° 0 mm 1 m/s 755 mmHg 80%
    05:00 +16°C° 0 mm 1 m/s 755 mmHg 81%
    06:00 +16°C° 0 mm 1 m/s 755 mmHg 82%
    07:00 +19°C° 0 mm 1 m/s 755 mmHg 74%
    08:00 +20°C° 0 mm 2 m/s 755 mmHg 67%
    09:00 +23°C° 0 mm 2 m/s 755 mmHg 59%
    10:00 +24°C° 0 mm 2 m/s 755 mmHg 55%
    11:00 +25°C° 0 mm 2 m/s 755 mmHg 50%
    12:00 +26°C° 0 mm 2 m/s 755 mmHg 46%
    13:00 +27°C° 0 mm 2 m/s 755 mmHg 45%
    14:00 +27°C° 0 mm 2 m/s 754 mmHg 44%
    15:00 +27°C° 0 mm 2 m/s 754 mmHg 43%
    16:00 +26°C° 0 mm 2 m/s 754 mmHg 47%
    17:00 +26°C° 0 mm 2 m/s 754 mmHg 52%
    18:00 +25°C° 0 mm 2 m/s 754 mmHg 56%
    19:00 +23°C° 0 mm 2 m/s 754 mmHg 59%
    20:00 +21°C° 0 mm 2 m/s 754 mmHg 62%
    21:00 +20°C° 0 mm 2 m/s 754 mmHg 65%
    22:00 +19°C° 0 mm 2 m/s 754 mmHg 65%
    23:00 +18°C° 0 mm 2 m/s 755 mmHg 66%
    Arată mai mult